Meteo pe oră la Bolshie Karkaly

Astăzi, 9 Mai, Duminică

Timp Temperatura Precipitaţii Vânt Presiune Umiditate
00:00 +12°C° 0 mm 1 m/s 731 mmHg 79%
01:00 +11°C° 0 mm 1 m/s 731 mmHg 79%
02:00 +11°C° 0 mm 1 m/s 731 mmHg 79%
03:00 +11°C° 0 mm 1 m/s 731 mmHg 78%
04:00 +10°C° 0 mm 0 m/s 731 mmHg 77%
05:00 +11°C° 0 mm 0 m/s 731 mmHg 74%
06:00 +13°C° 0 mm 1 m/s 731 mmHg 70%
07:00 +14°C° 0 mm 1 m/s 732 mmHg 66%
08:00 +15°C° 0 mm 1 m/s 732 mmHg 60%
09:00 +18°C° 0 mm 1 m/s 732 mmHg 55%
10:00 +18°C° 0 mm 2 m/s 732 mmHg 49%
11:00 +20°C° 0 mm 1 m/s 732 mmHg 45%
12:00 +21°C° 0 mm 1 m/s 732 mmHg 41%
13:00 +22°C° 0 mm 1 m/s 732 mmHg 37%
14:00 +22°C° 0 mm 1 m/s 732 mmHg 36%
15:00 +21°C° 0 mm 2 m/s 732 mmHg 35%
16:00 +21°C° 0 mm 2 m/s 732 mmHg 35%
17:00 +20°C° 0 mm 2 m/s 732 mmHg 40%
18:00 +19°C° 0 mm 2 m/s 732 mmHg 46%
19:00 +18°C° 0 mm 2 m/s 732 mmHg 51%
20:00 +17°C° 0 mm 2 m/s 732 mmHg 53%
21:00 +16°C° 0 mm 2 m/s 732 mmHg 54%
22:00 +15°C° 0 mm 1 m/s 732 mmHg 56%
23:00 +15°C° 0 mm 1 m/s 732 mmHg 58%

Mâine, 10 Mai, Luni

Timp Temperatura Precipitaţii Vânt Presiune Umiditate
00:00 +14°C° 0 mm 1 m/s 732 mmHg 60%
01:00 +14°C° 0 mm 1 m/s 732 mmHg 62%
02:00 +13°C° 0 mm 1 m/s 733 mmHg 64%
03:00 +13°C° 0 mm 1 m/s 733 mmHg 65%
04:00 +13°C° 0 mm 1 m/s 733 mmHg 67%
05:00 +14°C° 0 mm 1 m/s 733 mmHg 66%
06:00 +14°C° 0 mm 1 m/s 734 mmHg 64%
07:00 +15°C° 0 mm 1 m/s 734 mmHg 63%
08:00 +17°C° 0 mm 2 m/s 735 mmHg 58%
09:00 +18°C° 0 mm 2 m/s 735 mmHg 53%
10:00 +19°C° 0 mm 3 m/s 735 mmHg 49%
11:00 +20°C° 0 mm 3 m/s 735 mmHg 46%
12:00 +21°C° 0 mm 2 m/s 735 mmHg 44%
13:00 +21°C° 0 mm 2 m/s 735 mmHg 41%
14:00 +23°C° 0 mm 2 m/s 735 mmHg 40%
15:00 +23°C° 0 mm 2 m/s 735 mmHg 39%
16:00 +23°C° 0 mm 2 m/s 735 mmHg 39%
17:00 +21°C° 0 mm 2 m/s 735 mmHg 45%
18:00 +19°C° 0 mm 3 m/s 736 mmHg 52%
19:00 +18°C° 0 mm 3 m/s 736 mmHg 59%
20:00 +18°C° 0 mm 2 m/s 736 mmHg 59%
21:00 +18°C° 0 mm 1 m/s 736 mmHg 59%
22:00 +16°C° 0 mm 1 m/s 736 mmHg 59%
23:00 +16°C° 0 mm 1 m/s 736 mmHg 60%

Poimâine, 11 Mai, Marţi

Timp Temperatura Precipitaţii Vânt Presiune Umiditate
00:00 +15°C° 0 mm 1 m/s 736 mmHg 61%
01:00 +15°C° 0 mm 1 m/s 736 mmHg 63%
02:00 +14°C° 0 mm 1 m/s 737 mmHg 64%
03:00 +14°C° 0 mm 1 m/s 737 mmHg 66%
04:00 +14°C° 0 mm 1 m/s 737 mmHg 68%
05:00 +15°C° 0 mm 1 m/s 737 mmHg 65%
06:00 +15°C° 0 mm 1 m/s 738 mmHg 63%
07:00 +15°C° 0 mm 0 m/s 738 mmHg 60%
08:00 +19°C° 0 mm 1 m/s 739 mmHg 55%
09:00 +20°C° 0 mm 1 m/s 739 mmHg 50%
10:00 +21°C° 0 mm 1 m/s 739 mmHg 46%
11:00 +22°C° 0 mm 1 m/s 739 mmHg 43%
12:00 +23°C° 0 mm 1 m/s 739 mmHg 40%
13:00 +24°C° 0 mm 1 m/s 739 mmHg 37%
14:00 +24°C° 0 mm 1 m/s 739 mmHg 37%
15:00 +24°C° 0 mm 1 m/s 739 mmHg 36%
16:00 +24°C° 0 mm 2 m/s 739 mmHg 36%
17:00 +23°C° 0 mm 2 m/s 739 mmHg 41%
18:00 +22°C° 0 mm 1 m/s 739 mmHg 47%
19:00 +21°C° 0 mm 1 m/s 739 mmHg 52%
20:00 +20°C° 0 mm 1 m/s 739 mmHg 53%
21:00 +19°C° 0 mm 1 m/s 740 mmHg 54%
22:00 +16°C° 0 mm 0 m/s 740 mmHg 55%
23:00 +16°C° 0 mm 1 m/s 740 mmHg 58%

12 Mai, Miercuri

Timp Temperatura Precipitaţii Vânt Presiune Umiditate
00:00 +16°C° 0 mm 1 m/s 740 mmHg 61%
01:00 +15°C° 0 mm 2 m/s 740 mmHg 64%
02:00 +14°C° 0 mm 2 m/s 740 mmHg 71%
03:00 +14°C° 0 mm 2 m/s 740 mmHg 78%
04:00 +13°C° 0 mm 2 m/s 740 mmHg 86%
05:00 +14°C° 0 mm 2 m/s 740 mmHg 83%
06:00 +15°C° 0 mm 2 m/s 741 mmHg 80%
07:00 +16°C° 0 mm 3 m/s 741 mmHg 77%
08:00 +17°C° 0 mm 3 m/s 741 mmHg 70%
09:00 +19°C° 0 mm 3 m/s 741 mmHg 64%
10:00 +21°C° 0 mm 3 m/s 741 mmHg 57%
11:00 +21°C° 0 mm 3 m/s 741 mmHg 53%
12:00 +22°C° 0 mm 3 m/s 741 mmHg 49%
13:00 +24°C° 0 mm 2 m/s 741 mmHg 46%
14:00 +24°C° 0 mm 3 m/s 741 mmHg 45%
15:00 +24°C° 0 mm 3 m/s 741 mmHg 44%
16:00 +24°C° 0 mm 3 m/s 740 mmHg 44%
17:00 +22°C° 0 mm 3 m/s 740 mmHg 49%
18:00 +21°C° 0 mm 3 m/s 740 mmHg 55%
19:00 +20°C° 0 mm 3 m/s 740 mmHg 60%
20:00 +18°C° 0 mm 3 m/s 740 mmHg 60%
21:00 +17°C° 0 mm 3 m/s 740 mmHg 60%
22:00 +16°C° 0 mm 2 m/s 740 mmHg 61%
23:00 +15°C° 0 mm 2 m/s 740 mmHg 62%

13 Mai, Joi

Timp Temperatura Precipitaţii Vânt Presiune Umiditate
00:00 +14°C° 0 mm 2 m/s 740 mmHg 64%
01:00 +14°C° 0 mm 2 m/s 740 mmHg 65%
02:00 +13°C° 0 mm 2 m/s 740 mmHg 66%
03:00 +13°C° 0 mm 1 m/s 739 mmHg 67%
04:00 +13°C° 0 mm 1 m/s 739 mmHg 68%
05:00 +14°C° 0 mm 1 m/s 740 mmHg 67%
06:00 +15°C° 0 mm 1 m/s 740 mmHg 65%
07:00 +16°C° 0 mm 1 m/s 740 mmHg 64%
08:00 +19°C° 0 mm 1 m/s 740 mmHg 59%
09:00 +20°C° 0 mm 1 m/s 740 mmHg 54%
10:00 +21°C° 0 mm 2 m/s 740 mmHg 49%
11:00 +23°C° 0 mm 1 m/s 740 mmHg 46%
12:00 +25°C° 0 mm 1 m/s 740 mmHg 43%
13:00 +26°C° 0 mm 1 m/s 740 mmHg 39%
14:00 +26°C° 0 mm 1 m/s 740 mmHg 39%
15:00 +26°C° 0 mm 1 m/s 740 mmHg 39%
16:00 +26°C° 0 mm 2 m/s 740 mmHg 38%
17:00 +25°C° 0 mm 2 m/s 740 mmHg 44%
18:00 +24°C° 0 mm 2 m/s 739 mmHg 50%
19:00 +23°C° 0 mm 2 m/s 739 mmHg 56%
20:00 +21°C° 0 mm 2 m/s 739 mmHg 58%
21:00 +20°C° 0 mm 1 m/s 739 mmHg 60%
22:00 +19°C° 0 mm 1 m/s 739 mmHg 62%
23:00 +19°C° 0 mm 1 m/s 739 mmHg 62%

14 Mai, Vineri

Timp Temperatura Precipitaţii Vânt Presiune Umiditate
00:00 +18°C° 0 mm 1 m/s 739 mmHg 63%
01:00 +18°C° 0 mm 1 m/s 739 mmHg 64%
02:00 +16°C° 0 mm 0 m/s 739 mmHg 65%
03:00 +15°C° 0 mm 0 m/s 740 mmHg 65%
04:00 +15°C° 0 mm 0 m/s 740 mmHg 66%
05:00 +16°C° 0 mm 0 m/s 740 mmHg 63%
06:00 +17°C° 0 mm 0 m/s 740 mmHg 60%
07:00 +18°C° 0 mm 0 m/s 741 mmHg 58%
08:00 +20°C° 0 mm 0 m/s 741 mmHg 53%
09:00 +22°C° 0 mm 0 m/s 741 mmHg 49%
10:00 +25°C° 0 mm 1 m/s 741 mmHg 44%
11:00 +26°C° 0 mm 1 m/s 741 mmHg 42%
12:00 +27°C° 0 mm 1 m/s 740 mmHg 40%
13:00 +28°C° 0 mm 1 m/s 740 mmHg 38%
14:00 +28°C° 0 mm 1 m/s 740 mmHg 37%
15:00 +28°C° 0 mm 1 m/s 740 mmHg 36%
16:00 +28°C° 0 mm 1 m/s 740 mmHg 36%
17:00 +27°C° 0 mm 1 m/s 740 mmHg 40%
18:00 +26°C° 0 mm 1 m/s 739 mmHg 45%
19:00 +25°C° 0 mm 1 m/s 739 mmHg 49%
20:00 +24°C° 0 mm 1 m/s 739 mmHg 50%
21:00 +23°C° 0 mm 1 m/s 739 mmHg 52%
22:00 +21°C° 0 mm 2 m/s 739 mmHg 53%
23:00 +21°C° 0 mm 2 m/s 739 mmHg 54%
Arată mai mult

Formular de consimțământ

Meteoprog și furnizorii noștri de servicii pot stoca și accesa date personale, precum cookies, identificatori de dispozitiv sau alte tehnologii similare pe dispozitivul dumneavoastră și procesa astfel de date pentru a personaliza conținutul și reclamele, dar și pentru a oferi caracteristici de social media și pentru a analiza traficul.

  • Stocarea și/sau accesarea informațiilor pe dispozitivul dumneavoastră

    Cookies, identificatori de dispozitiv sau alte informații pot fi stocate sau accesate pe dispozitiv în scopurile indicate mai sus.

  • Reclame și conținut personalizat, evaluarea reclamelor și a conținutului, informații despre audiențe și dezvoltarea produselor

    Reclamele și conținutul pot fi personalizate pe baza unui profil. Pot fi adăugate date suplimentare pentru a personaliza mai bine reclamele și conținutul. Performanța reclamelor și conținutului poate fi măsurată. Pot fi obținute informații despre utilizatorii care au văzut reclamele și conținutul. Aceste date pot fi utilizate pentru a dezvolta sau îmbunătăți experiența utilizatorilor, sistemele și software-ul.

Dând clic pe ‘Sunt de acord’, permiteți utilizarea cookie-urilor menționate, a identificatorilor de dispozitiv, balizelor web sau altor tehnologii similare. Setările pot fi modificate din browser-ul dispozitivului dumneavoastră.

În anumite scopuri, interesele legitime pot prima asupra consimțământului. Puteți citi mai multe informații în acest sens în Politica privind Confidențialitatea Datelor și Cookie.